GFSMA_500_rhum_000.txt.gz
RH
10 9 12 19 20 24 25 24 25 25 27 31 34 36 36 38 40 42 44 44 42 36 24 15 11 10 7 4 2 2 2 3 3 3 4 4 4 4 3 2 2 2 2
13 10 10 20 17 19 20 21 21 24 26 26 29 30 32 36 38 41 46 48 49 48 44 34 18 13 11 7 5 5 4 3 4 4 4 3 3 3 3 4 5 5 4
10 8 10 20 19 18 15 17 21 24 25 26 25 26 26 27 30 35 42 50 56 58 53 48 33 19 16 14 8 7 8 10 12 12 10 10 10 12 10 8 7 9 9
8 7 10 18 20 22 23 25 27 28 27 28 29 29 26 25 26 31 38 48 56 61 61 56 48 27 18 21 25 20 11 11 15 19 20 20 21 24 25 22 20 19 18
7 6 10 15 17 21 22 19 23 27 28 31 33 34 32 29 28 32 38 41 49 59 64 61 58 40 24 27 54 57 48 17 16 18 22 25 30 31 30 24 22 22 23
7 6 8 11 11 9 5 5 3 10 16 14 17 33 32 30 33 39 44 44 44 53 62 65 62 64 40 29 34 59 88 32 26 24 23 27 32 32 28 24 24 27 36
7 7 7 8 8 6 4 2 1 1 3 6 28 33 36 40 44 48 48 47 48 56 66 73 75 83 52 59 53 90 94 96 58 31 28 30 33 34 26 27 29 42 33
6 6 8 7 7 8 6 3 2 3 13 35 38 42 43 46 50 50 50 51 59 72 81 90 89 92 81 65 77 96 97 98 88 80 42 39 37 37 33 38 35 38 47
5 5 5 6 6 5 6 15 33 40 39 41 44 47 45 45 50 57 60 69 77 85 95 95 92 90 94 91 100 96 99 98 98 89 62 61 40 43 66 75 43 47 58
10 10 9 10 10 20 31 36 38 38 35 42 47 56 59 66 66 57 66 79 90 98 98 95 91 92 90 90 100 98 96 97 98 89 83 73 52 50 74 91 54 58 68
20 22 24 23 23 26 33 40 43 46 48 57 65 67 69 72 74 73 57 86 74 90 88 94 95 94 85 78 99 99 99 98 100 98 97 78 57 63 79 86 57 66 76
27 30 35 40 46 45 44 46 49 55 60 66 70 73 74 76 86 88 73 83 77 79 74 74 81 100 94 86 89 100 100 95 99 99 100 76 66 79 90 87 70 81 80
37 34 33 34 38 38 36 42 41 40 58 53 61 64 71 71 76 71 87 85 77 78 64 59 83 96 95 90 88 85 79 90 94 94 97 75 75 86 100 90 80 88 87
23 23 22 22 21 20 23 30 34 43 47 35 40 66 78 77 94 96 96 94 85 80 66 72 84 100 98 95 93 92 93 84 89 96 95 88 90 94 100 88 96 89 89
17 18 18 19 19 19 21 24 27 32 38 42 45 52 63 78 100 97 100 100 100 71 68 76 64 96 99 91 97 99 93 92 87 93 94 96 98 86 98 95 91 94 100
23 31 37 42 48 50 48 46 44 46 46 49 52 56 60 70 80 85 95 98 100 97 86 91 91 82 96 100 97 98 91 93 96 99 98 100 93 88 100 97 97 100 98
47 46 42 40 41 48 55 52 53 54 55 57 67 67 72 81 92 98 100 100 98 100 97 70 74 99 83 99 99 99 98 99 100 98 99 99 92 96 100 94 100 97 85
49 49 50 48 48 50 53 54 49 48 47 47 51 51 73 96 90 92 98 100 100 100 99 74 76 90 90 96 95 99 99 99 100 97 99 98 99 97 99 100 100 91 83
52 49 48 46 45 46 48 52 58 57 53 49 42 42 44 56 63 72 74 88 91 95 82 98 75 89 95 99 98 97 100 98 99 99 97 99 100 99 100 100 99 91 90
62 59 56 53 50 48 47 49 49 49 46 45 48 55 61 64 68 73 76 65 69 88 76 87 76 66 89 98 99 99 100 98 99 98 100 98 99 94 100 100 100 92 86
44 48 49 52 52 50 50 50 46 42 40 41 45 46 48 47 51 55 55 43 61 78 94 96 98 76 70 93 99 99 99 99 99 99 100 98 99 98 100 100 98 87 86
50 51 50 52 52 50 49 48 46 42 40 36 35 34 34 34 37 38 52 74 70 64 67 97 97 80 68 86 99 99 99 99 98 100 99 100 98 99 100 100 90 88 85
49 51 55 56 56 58 59 54 49 46 42 39 35 32 29 30 34 36 42 53 73 46 54 93 100 92 77 85 99 97 100 98 98 99 100 100 97 100 100 91 87 86 94
64 55 51 58 69 70 64 56 49 44 40 37 33 31 29 27 29 37 36 33 35 41 93 88 84 79 82 98 98 98 99 98 96 99 100 100 100 100 98 94 91 97 97
80 79 75 74 75 72 62 49 36 29 26 23 20 19 19 21 25 25 26 30 51 76 92 98 98 90 99 97 99 98 99 99 98 100 100 98 100 97 94 94 98 99 93
89 83 75 70 57 44 36 32 25 19 15 14 16 16 18 22 23 27 20 33 83 96 92 93 100 99 99 99 99 99 100 99 99 100 100 97 100 91 90 100 98 95 93

GFSMA_500_rhum_003.txt.gz
RH
25 22 21 19 12 9 17 19 18 18 17 19 22 25 27 28 28 27 26 25 27 32 40 45 54 59 62 56 46 27 16 36 26 6 18 2 6 3 3 3 3 3 4
21 20 18 13 10 8 9 18 20 20 19 24 28 30 28 29 29 30 31 29 28 33 37 43 50 53 62 60 51 48 24 17 25 29 18 14 14 23 12 14 14 13 14
15 13 11 9 8 7 8 13 18 22 25 26 25 26 25 22 15 28 33 31 33 36 40 44 44 48 55 64 56 52 51 32 25 40 53 39 21 54 24 20 23 25 23
9 8 8 8 8 6 7 12 13 16 19 16 11 9 7 8 7 28 34 35 39 43 47 46 44 46 55 63 62 67 84 57 28 37 65 80 69 24 26 31 31 34 32
6 6 7 7 8 7 7 9 8 6 5 5 5 3 2 2 10 36 37 40 43 48 49 49 48 52 63 72 84 90 86 80 52 64 67 77 93 38 38 44 35 37 36
7 6 7 7 7 7 7 7 8 7 6 5 6 4 6 23 39 38 41 43 46 50 52 52 56 66 75 83 89 82 86 91 90 77 78 94 97 76 69 40 39 39 35
5 6 6 7 7 7 7 8 7 5 4 3 5 12 28 38 38 39 42 48 54 59 62 63 70 78 85 90 90 94 91 84 92 92 96 98 97 94 97 73 75 47 41
2 2 3 3 3 4 4 5 5 4 5 10 24 32 28 32 38 44 53 63 68 68 68 72 80 85 82 82 80 79 94 100 90 86 93 99 99 98 97 95 83 56 61
7 8 10 11 14 16 19 26 30 35 36 38 37 34 36 41 47 59 66 74 73 74 82 92 93 87 88 76 72 72 89 94 93 98 97 100 99 98 98 93 93 77 64
20 21 21 21 21 21 21 24 26 30 36 42 57 66 62 62 57 43 70 75 68 74 78 87 98 93 88 68 50 69 92 96 97 100 100 99 98 100 98 98 93 90 88
31 35 37 39 39 39 39 39 40 42 49 50 52 55 55 72 76 40 16 49 51 80 68 86 100 98 89 65 58 72 90 94 95 100 100 97 98 96 99 100 98 100 86
35 34 32 30 28 27 25 24 23 23 24 24 25 33 40 32 48 49 25 24 33 62 56 74 100 98 98 74 84 71 80 87 88 92 98 95 97 95 98 100 98 93 86
23 24 23 22 22 22 22 23 22 21 25 44 51 47 47 60 73 73 53 47 40 44 43 65 90 100 97 89 96 73 64 72 88 94 99 93 96 98 98 98 95 91 95
16 16 16 17 18 19 20 24 25 28 31 39 62 71 81 84 84 84 81 84 78 80 86 88 97 100 100 90 95 90 74 80 77 94 100 89 89 100 97 98 100 93 94
30 33 34 36 42 46 45 43 47 52 56 57 57 67 77 76 85 84 90 100 97 83 73 82 90 100 100 93 100 84 78 83 75 86 90 90 90 96 96 95 97 86 98
49 50 49 48 49 52 52 51 50 48 47 46 45 46 47 57 78 82 86 90 99 100 84 92 99 99 100 98 83 78 79 94 84 100 100 97 93 98 100 100 97 97 89
44 50 56 61 66 68 67 64 63 61 59 54 51 49 50 54 55 60 72 66 84 89 91 76 89 81 78 84 88 75 81 86 77 99 100 97 98 99 100 98 100 92 89
21 27 33 37 39 48 60 68 68 68 66 64 62 61 59 57 53 52 53 60 69 82 94 84 77 86 86 82 85 67 82 70 83 93 99 100 95 99 99 98 96 90 90
16 23 34 41 46 61 73 73 73 67 68 69 66 62 59 55 51 48 46 45 41 38 44 58 68 78 86 74 81 69 83 82 86 92 98 98 100 98 99 99 96 97 99
17 28 39 44 51 55 58 65 67 68 67 70 70 68 62 57 52 47 44 40 39 41 48 43 48 57 65 64 68 80 91 100 100 95 95 98 98 99 96 100 99 99 97
23 37 47 48 61 83 90 95 91 79 70 65 66 65 61 61 56 52 48 44 39 43 57 55 47 46 45 55 64 98 97 97 79 82 100 93 94 93 99 98 100 100 100
51 69 91 97 93 88 82 81 78 76 86 80 75 77 77 73 66 59 52 44 38 36 43 57 48 40 33 58 98 98 96 99 98 85 100 97 100 95 99 100 100 100 99
66 68 66 68 82 80 73 79 79 79 88 96 94 90 87 76 61 49 43 34 31 28 24 23 26 31 29 39 89 100 100 93 84 94 99 98 100 98 99 93 100 99 95
86 92 96 96 86 76 86 98 98 98 98 95 88 76 64 55 44 36 32 27 23 22 22 24 28 24 32 47 59 94 84 98 99 83 99 97 100 100 96 100 100 100 99
73 73 77 77 81 78 77 76 74 71 69 67 69 62 56 51 44 30 25 22 17 15 18 19 20 26 53 71 98 96 99 100 98 99 99 100 99 99 100 100 100 98 88
70 67 64 60 55 50 48 41 41 42 41 38 35 30 25 20 17 15 15 14 13 14 14 13 15 25 82 100 100 99 100 100 100 99 100 99 100 100 100 100 99 98 100

GFSMA_500_rhum_006.txt.gz
RH
21 22 24 25 23 21 17 13 8 7 10 19 20 21 25 27 29 28 26 22 16 19 31 33 35 39 44 46 46 46 51 61 62 61 66 69 37 37 49 43 32 13 27
23 24 24 22 17 15 13 10 9 8 7 11 17 21 24 26 24 20 12 9 10 17 33 35 37 42 46 48 48 47 51 61 69 74 80 78 61 39 27 62 43 54 43
12 12 13 13 12 10 9 8 8 7 7 7 12 19 21 16 7 4 2 2 3 22 37 36 40 44 49 50 49 49 57 69 74 80 77 79 80 54 40 61 58 69 66
8 7 7 8 7 7 7 7 8 8 7 7 8 10 11 8 6 5 3 5 16 36 37 37 42 46 51 53 54 58 66 72 81 79 77 85 82 85 56 57 62 73 96
6 6 7 7 7 7 7 7 7 7 8 8 7 7 7 6 4 4 5 14 36 37 35 38 44 51 59 62 63 67 72 79 80 78 83 85 76 85 85 91 80 95 100
5 5 4 4 5 5 6 6 7 7 7 8 8 8 6 5 5 4 17 37 39 35 36 44 55 65 70 69 68 75 78 80 66 66 74 84 86 88 80 84 98 99 100
2 3 3 4 4 4 5 4 4 4 5 5 4 5 5 6 17 39 40 38 40 45 52 61 68 75 73 72 71 79 72 70 66 54 68 86 82 84 86 89 98 97 100
13 15 16 17 20 22 24 23 22 22 21 25 24 23 23 32 42 44 48 55 62 64 72 83 82 72 70 67 74 77 79 82 68 47 49 64 75 74 83 96 96 94 100
18 18 19 21 24 27 31 35 38 39 39 42 44 43 40 39 46 67 68 71 74 77 83 78 68 76 65 74 78 79 93 85 69 55 62 73 79 80 83 93 94 96 94
30 30 31 31 31 32 34 33 32 30 29 28 29 32 32 29 26 23 44 57 57 68 67 76 78 75 81 81 73 82 92 88 73 64 68 66 70 76 77 77 82 92 100
25 24 23 22 22 23 23 24 24 23 23 22 23 24 24 25 32 39 29 56 72 76 79 87 97 100 98 98 91 89 84 88 75 69 67 58 63 81 87 77 82 100 98
18 17 17 17 17 17 17 17 17 18 18 19 22 34 46 51 58 72 75 71 78 93 97 94 98 99 98 97 100 99 94 96 89 80 77 66 77 83 90 87 79 93 93
26 28 28 30 31 34 36 38 40 44 47 47 49 52 66 78 84 86 90 87 92 86 91 100 100 98 99 98 98 100 97 94 86 90 80 54 68 96 88 95 80 77 95
13 9 6 6 7 9 15 22 28 36 43 50 54 58 59 59 62 70 80 80 79 86 82 85 100 100 99 98 97 100 98 94 74 98 94 66 59 87 81 92 93 87 86
7 8 8 8 8 8 9 9 10 11 13 14 21 33 44 51 63 68 71 75 77 68 60 65 80 95 99 98 98 97 97 96 98 90 83 85 78 98 89 90 94 93 88
9 9 10 11 11 12 12 12 13 16 20 22 27 37 49 65 76 79 76 78 82 78 69 61 60 64 85 89 96 98 98 96 94 93 92 90 87 93 89 98 96 88 88
11 11 11 11 11 12 13 15 16 19 24 35 47 60 69 83 82 81 77 74 71 69 68 56 57 55 53 57 78 79 96 97 96 99 87 79 82 84 84 97 100 98 92
13 14 15 14 13 13 13 17 23 31 46 57 67 74 83 88 81 78 74 72 69 69 69 63 58 64 60 53 53 54 82 88 96 94 96 89 92 78 88 98 100 100 92
15 15 15 15 14 14 14 22 40 63 72 89 98 94 88 86 87 89 86 83 84 82 81 74 65 59 54 47 41 41 48 61 68 100 99 91 97 70 93 98 100 89 92
15 15 12 12 13 18 33 53 63 79 88 89 87 88 95 99 97 95 97 98 100 100 93 85 79 70 58 47 40 35 33 48 53 97 94 100 90 80 99 94 100 99 98
8 8 9 12 18 30 57 86 94 92 100 100 100 100 100 100 100 100 99 94 100 100 100 90 76 63 54 45 38 34 34 32 30 93 99 100 100 89 93 96 99 100 100
8 8 13 28 48 63 71 80 86 83 89 88 87 96 100 100 100 100 100 99 98 93 86 66 58 45 38 31 24 26 28 35 36 44 100 98 100 84 84 93 100 100 99
16 36 51 54 58 61 64 64 60 57 54 53 54 54 56 61 68 73 79 80 76 67 59 58 54 50 40 27 20 16 22 26 48 56 58 98 100 99 100 93 98 100 99
46 45 45 44 41 40 36 31 28 24 20 18 16 16 17 20 22 26 36 46 48 44 36 31 29 29 22 18 17 17 18 24 28 65 71 89 100 99 99 100 98 99 99
44 40 34 31 30 28 26 26 24 20 19 16 14 12 11 11 11 12 13 15 18 19 18 18 15 13 12 12 15 17 25 32 24 53 85 100 100 97 100 99 98 100 99
33 36 38 43 39 30 28 26 25 23 18 14 11 10 10 9 9 9 9 9 10 10 11 11 11 13 13 14 21 21 28 32 59 85 96 100 100 100 98 100 100 99 99

GFSMA_500_rhum_009.txt.gz
RH
29 28 28 27 27 26 24 24 20 15 14 12 10 9 8 7 11 18 20 24 24 20 12 5 3 4 16 34 36 37 40 44 49 50 51 55 65 65 59 60 59 63 53
21 19 20 18 16 15 14 14 13 12 10 9 8 8 8 7 7 10 16 18 15 8 5 3 3 7 28 37 37 39 43 48 52 54 55 61 66 68 61 52 58 78 75
14 13 11 10 9 8 8 8 8 7 7 7 7 8 8 8 7 6 7 8 6 4 3 3 5 16 37 38 36 40 45 53 59 62 63 69 71 72 71 58 58 70 79
7 6 7 8 7 7 7 7 7 7 8 8 8 8 8 8 9 9 8 6 4 3 3 3 10 33 42 37 38 46 55 64 68 67 66 70 70 65 64 57 62 68 75
5 6 5 4 4 4 4 4 4 4 4 5 5 5 6 8 9 9 8 6 4 4 4 15 40 44 42 43 50 58 67 73 71 69 71 76 71 56 56 55 60 73 65
2 3 5 6 9 10 13 15 16 17 18 18 18 18 17 16 14 10 8 8 10 23 39 46 47 48 54 60 65 73 77 73 69 70 69 67 62 61 54 54 67 72 72
17 17 17 18 19 20 22 24 26 28 31 34 33 35 35 35 34 35 40 44 47 52 56 65 70 71 71 75 79 78 77 72 65 61 64 66 72 64 53 61 64 73 75
22 24 26 28 30 30 32 32 32 32 32 33 32 30 28 32 41 49 54 59 64 67 69 70 74 75 68 69 84 84 82 78 68 66 62 66 82 62 54 60 72 75 76
32 31 29 28 26 22 22 22 21 19 19 20 20 19 18 17 18 20 24 26 29 29 36 43 50 63 70 76 86 92 100 96 90 88 84 88 88 72 68 74 73 73 72
23 21 19 17 16 16 15 17 19 20 22 20 27 27 25 23 17 14 18 27 55 54 63 77 92 99 98 96 98 98 99 98 96 86 92 94 95 74 77 77 69 63 66
17 16 17 20 22 23 22 20 16 12 12 13 18 26 34 38 42 43 34 37 47 68 88 94 98 98 100 99 97 94 96 98 97 91 93 100 90 77 71 82 85 77 70
18 13 8 7 6 6 6 7 7 8 8 8 8 8 8 9 12 20 21 27 39 48 83 96 96 98 97 97 97 97 99 100 98 99 99 97 94 71 66 75 70 75 78
8 9 8 8 8 8 8 8 8 8 8 9 10 10 10 10 11 12 14 11 15 18 30 58 79 83 99 99 98 97 100 98 98 98 93 98 87 76 62 72 66 67 77
10 10 9 9 9 10 10 11 11 12 12 12 11 11 11 13 16 22 26 32 23 26 22 26 47 56 69 72 78 89 84 89 97 97 96 96 97 92 74 72 82 74 83
12 12 12 12 13 13 13 13 12 12 12 13 13 14 16 17 19 28 42 54 82 54 27 26 40 52 69 73 68 74 78 76 94 100 99 98 96 97 89 84 95 100 87
16 16 15 14 12 11 10 10 10 12 13 13 13 14 16 21 25 41 65 87 100 100 88 53 55 64 74 72 73 68 65 67 81 92 99 100 99 100 97 97 100 100 99
15 13 11 8 7 6 7 8 8 8 8 8 10 14 17 25 34 59 90 100 100 100 100 85 92 93 91 84 82 77 67 62 66 82 77 82 91 99 99 97 99 100 99
12 9 8 7 7 7 7 6 6 7 7 9 12 19 30 32 46 72 90 98 99 100 100 97 87 84 87 89 82 85 79 72 65 60 54 54 72 92 90 99 97 89 92
9 9 8 8 7 7 7 7 9 10 15 33 44 52 61 74 81 94 99 99 100 100 100 100 93 87 87 93 91 77 89 82 79 72 50 41 46 64 77 100 99 98 95
9 8 7 7 7 8 11 14 24 33 42 54 61 73 81 87 90 89 92 93 94 94 93 94 97 91 97 100 100 100 99 96 80 68 54 40 44 45 70 100 100 98 98
8 7 8 9 13 21 37 39 37 37 39 42 42 38 35 33 34 31 28 26 27 32 46 69 86 92 93 99 100 98 89 73 71 46 44 40 39 38 45 61 98 99 99
8 9 15 27 39 46 45 43 39 31 30 31 31 31 27 26 24 23 22 22 20 17 16 16 26 47 69 90 89 81 68 64 57 34 28 30 34 35 38 49 99 100 100
14 29 49 59 60 58 50 38 35 31 27 24 23 21 21 20 19 18 17 16 14 13 12 12 14 15 22 38 51 55 56 49 47 43 30 23 18 29 53 69 91 100 100
41 60 71 75 73 66 52 39 30 26 24 22 21 19 17 16 16 14 13 11 9 8 9 10 11 11 12 15 17 21 25 25 22 19 16 15 15 17 36 90 90 99 100
60 70 72 66 58 49 40 35 30 24 18 15 13 12 11 10 10 9 8 6 5 5 5 6 8 10 10 11 12 13 13 13 13 11 12 15 16 21 37 100 100 99 99
67 66 60 50 41 34 26 19 15 12 8 7 6 6 7 8 8 7 6 5 4 4 5 6 7 7 8 9 11 12 12 10 11 9 16 23 56 29 43 95 100 100 100